Location: Paris
(48.6709°N, 2.3750°E)
Time: 04:15:17
(UTC+02:00)

ISS - Visible Passes

Search period start: 17 April 2024 00:00
Search period end: 27 April 2024 00:00
Orbit: 412 x 419 km, 51.6° (Epoch: 16 April)

Date Brightness Start Highest point End Pass type
(mag) Time Alt. Az. Time Alt. Az. Time Alt. Az.
22 Apr -1.2 05:32:20 10° S 05:34:11 14° SE 05:36:02 10° ESE visible
24 Apr -2.4 05:30:30 14° SSW 05:32:49 30° SE 05:35:48 10° E visible
25 Apr -1.9 04:43:25 19° SSE 04:44:03 20° SE 04:46:34 10° E visible
26 Apr -1.1 03:56:16 12° ESE 03:56:16 12° ESE 03:56:54 10° ESE visible
26 Apr -3.6 05:29:07 18° SW 05:31:28 62° SSE 05:34:47 10° ENE visible
